Location: Bosmont
(49.7318°N, 3.8587°E)
Time: 06:02:04
(UTC+00:00)

PSLV R/B - Pass Details

Date: 08 February 2023
Orbit: 490 x 557 km, 97.8° (Epoch: 29 March)

Event Time Altitude Azimuth Distance (km) Brightness Sun altitude
Rises 18:14:31 0° 162° (SSE) 2,580 7.1 -13.8°
Reaches altitude 10° 18:16:33 10° 161° (SSE) 1,710 6.2 -14.2°
Maximum altitude 18:20:14 81° 74° (ENE) 525 3.5 -14.8°
Drops below altitude 10° 18:24:02 10° 348° (NNW) 1,764 6.5 -15.4°
Sets 18:26:10 0° 348° (NNW) 2,671 7.4 -15.7°
